TimeEST,TemperatureF,Dew PointF,Humidity,Sea Level PressureIn,VisibilityMPH,Wind Direction,Wind SpeedMPH,Gust SpeedMPH,PrecipitationIn,Events,Conditions,WindDirDegrees,DateUTC
12:03 AM,57.2,55.4,94,29.83,2.5,SSE,9.2,-,0.04,Rain,Rain,160,2013-01-13 05:03:00
12:15 AM,59.0,55.4,88,29.82,4.0,South,4.6,-,0.06,Rain,Light Rain,170,2013-01-13 05:15:00
12:19 AM,59.0,57.2,94,29.83,5.0,Calm,Calm,-,0.06,Rain,Light Rain,0,2013-01-13 05:19:00
12:30 AM,57.2,55.4,94,29.83,2.5,Calm,Calm,-,0.10,Rain,Rain,0,2013-01-13 05:30:00
12:39 AM,59.0,57.2,94,29.82,1.2,South,10.4,-,0.18,Rain,Heavy Rain,190,2013-01-13 05:39:00
12:46 AM,59.0,57.2,94,29.81,3.0,South,10.4,-,0.19,Rain,Light Rain,170,2013-01-13 05:46:00
12:53 AM,59.0,55.9,90,29.80,5.0,South,11.5,-,0.19,,Overcast,170,2013-01-13 05:53:00
1:06 AM,59.0,55.4,88,29.79,6.0,South,12.7,-,N/A,,Overcast,170,2013-01-13 06:06:00
1:53 AM,61.0,57.0,87,29.76,9.0,South,16.1,-,N/A,,Overcast,180,2013-01-13 06:53:00
2:53 AM,62.1,57.9,86,29.76,10.0,South,12.7,-,N/A,,Overcast,190,2013-01-13 07:53:00
3:53 AM,64.0,57.0,78,29.73,10.0,South,16.1,-,N/A,,Overcast,190,2013-01-13 08:53:00
4:53 AM,63.0,57.0,81,29.72,10.0,SSW,15.0,-,0.01,,Overcast,200,2013-01-13 09:53:00
5:53 AM,63.0,57.0,81,29.72,10.0,SSW,16.1,28.8,0.03,Rain,Light Rain,200,2013-01-13 10:53:00
6:53 AM,63.0,57.0,81,29.77,9.0,West,15.0,-,0.04,Rain,Light Rain,280,2013-01-13 11:53:00
7:24 AM,60.8,55.4,82,29.76,10.0,SW,12.7,-,0.00,,Mostly Cloudy,220,2013-01-13 12:24:00
7:53 AM,60.1,55.9,86,29.78,10.0,SW,10.4,-,0.00,Rain,Light Rain,230,2013-01-13 12:53:00
8:14 AM,55.4,51.8,88,29.83,9.0,NW,32.2,39.1,0.01,Rain,Light Rain,320,2013-01-13 13:14:00
8:22 AM,44.6,41.0,87,29.86,6.0,NW,27.6,39.1,0.01,,Overcast,320,2013-01-13 13:22:00
8:32 AM,44.6,42.8,93,29.86,6.0,WNW,10.4,-,0.01,,Overcast,300,2013-01-13 13:32:00
8:50 AM,44.6,42.8,93,29.86,7.0,SW,6.9,-,0.01,,Overcast,230,2013-01-13 13:50:00
8:53 AM,45.0,43.0,93,29.87,7.0,WSW,6.9,-,0.01,,Overcast,240,2013-01-13 13:53:00
9:06 AM,44.6,42.8,93,29.85,7.0,SW,6.9,-,0.00,Rain,Light Rain,220,2013-01-13 14:06:00
9:42 AM,44.6,42.8,93,29.88,6.0,NNW,12.7,-,0.00,,Overcast,330,2013-01-13 14:42:00
9:53 AM,43.0,39.9,89,29.90,7.0,NW,11.5,-,0.00,,Overcast,320,2013-01-13 14:53:00
10:16 AM,42.8,39.2,87,29.88,9.0,WNW,3.5,-,N/A,,Mostly Cloudy,290,2013-01-13 15:16:00
10:30 AM,42.8,41.0,93,29.88,9.0,SSW,3.5,-,N/A,,Mostly Cloudy,200,2013-01-13 15:30:00
10:53 AM,45.0,42.1,90,29.89,8.0,NNW,3.5,-,N/A,,Mostly Cloudy,340,2013-01-13 15:53:00
11:30 AM,46.4,44.6,93,29.86,9.0,Variable,3.5,-,N/A,,Overcast,0,2013-01-13 16:30:00
11:53 AM,48.9,45.0,86,29.80,9.0,SSE,12.7,-,N/A,,Scattered Clouds,150,2013-01-13 16:53:00
12:29 PM,48.2,44.6,87,29.86,9.0,NW,13.8,-,N/A,,Mostly Cloudy,320,2013-01-13 17:29:00
12:53 PM,48.0,45.0,89,29.86,8.0,WNW,9.2,-,N/A,,Overcast,300,2013-01-13 17:53:00
1:53 PM,48.0,44.1,86,29.86,10.0,NNW,8.1,-,N/A,,Overcast,340,2013-01-13 18:53:00
2:53 PM,46.9,43.0,86,29.86,9.0,Calm,Calm,-,N/A,,Overcast,0,2013-01-13 19:53:00
3:24 PM,48.2,44.6,87,29.86,7.0,NNW,3.5,-,N/A,,Overcast,340,2013-01-13 20:24:00
3:53 PM,46.0,42.1,86,29.87,9.0,NE,5.8,-,N/A,,Overcast,50,2013-01-13 20:53:00
4:00 PM,46.4,42.8,87,29.87,9.0,NE,5.8,-,N/A,,Overcast,50,2013-01-13 21:00:00
4:53 PM,43.0,39.0,86,29.90,9.0,NNE,6.9,-,N/A,,Overcast,20,2013-01-13 21:53:00
5:10 PM,42.8,39.2,87,29.89,2.5,North,5.8,-,0.00,Rain,Light Rain,10,2013-01-13 22:10:00
5:19 PM,42.8,39.2,87,29.89,3.0,NNE,6.9,-,0.01,Rain,Light Rain,20,2013-01-13 22:19:00
5:26 PM,42.8,39.2,87,29.89,1.8,North,6.9,-,0.01,Rain,Light Rain,10,2013-01-13 22:26:00
5:53 PM,41.0,39.9,96,29.90,1.8,NNE,5.8,-,0.03,Rain,Light Rain,20,2013-01-13 22:53:00
6:02 PM,42.8,39.2,87,29.89,2.5,Variable,5.8,-,0.00,Rain,Light Rain,0,2013-01-13 23:02:00
6:10 PM,41.0,39.2,93,29.90,3.0,North,6.9,-,0.01,Rain,Rain,350,2013-01-13 23:10:00
6:53 PM,41.0,39.0,93,29.94,6.0,NW,13.8,-,0.08,Rain,Light Rain,320,2013-01-13 23:53:00
7:53 PM,39.9,37.9,93,29.87,10.0,NE,3.5,-,0.07,,Overcast,40,2013-01-14 00:53:00
8:53 PM,39.9,37.9,93,29.92,7.0,NW,12.7,-,0.01,Rain,Light Rain,310,2013-01-14 01:53:00
9:53 PM,39.0,37.0,93,29.94,2.5,NW,15.0,-,0.07,Rain,Rain,310,2013-01-14 02:53:00
10:06 PM,39.2,37.4,93,29.93,3.0,NW,17.3,23.0,0.02,Rain,Light Rain,320,2013-01-14 03:06:00
10:53 PM,37.9,36.0,93,30.01,3.0,NW,19.6,27.6,0.03,Snow,Light Snow,320,2013-01-14 03:53:00
11:13 PM,37.4,33.8,87,30.01,4.0,NW,20.7,32.2,0.00,Snow,Light Snow,320,2013-01-14 04:13:00
11:53 PM,37.0,34.0,89,30.05,6.0,NW,13.8,-,0.00,,Overcast,310,2013-01-14 04:53:00